#timestamp,LO_Frequency,Hit,StdDev 
1661695215.1,286046999.9,N
1661695216.0,286046999.9,N
1661695235.8,286047000.5,N
1661695255.6,286047001.2,N
1661695275.5,286047000.5,N
1661695295.3,286047001.0,N
1661695315.2,286047000.9,N
1661695335.0,286047000.7,N
1661695335.9,286047000.7,N
1661695355.7,286047000.6,N
1661695375.6,286047000.6,N
1661695395.4,286047002.3,N
1661695415.3,286047000.1,N
1661695435.1,286046998.6,N
1661695455.8,286046999.6,N
1661695475.7,286046996.5,N
1661695495.5,286046997.2,N
1661695515.4,286046995.3,N
1661695535.2,286046993.9,Y
1661695555.0,286046996.1,P
1661695556.0,286046996.1,N
1661695575.8,286046993.4,P
1661695595.6,286046993.3,Y
1661695615.5,286046999.1,P
1661695635.3,286046999.0,N
1661695655.1,286046998.6,N
1661695675.9,286046998.2,N
1661695695.7,286047000.9,N
1661695715.6,286047000.4,N
1661695735.4,286046999.7,N
1661695755.2,286046999.7,N
1661695775.1,286047000.1,N
1661695776.0,286047000.1,N
1661695795.8,286047000.5,N
1661695815.7,286047000.0,N
1661695835.5,286047000.2,N
1661695855.3,286047002.3,N
1661695875.2,286047002.6,N
1661695895.9,286047000.1,N
1661695915.7,286047002.3,N
1661695935.6,286047002.0,N
1661695955.4,286047002.0,N
1661695975.2,286047001.7,N
1661695995.1,286047004.4,N
1661695996.0,286047004.4,N
1661696015.8,286047004.2,N
1661696035.7,286047004.4,N
1661696055.5,286047003.7,N
1661696075.3,286047004.0,N
1661696095.2,286047001.7,N
1661696115.0,286047001.3,N
1661696115.9,286047001.3,N
1661696135.8,286047001.9,N
1661696155.6,286047002.3,N
1661696175.4,286047000.2,N
1661696195.3,286047000.3,N
1661696215.1,286047001.1,N
1661696235.8,286047000.0,N
1661696255.7,286046999.9,N
1661696275.5,286046998.1,N
1661696295.4,286046998.3,N
1661696315.2,286047001.1,N
1661696335.0,286046998.8,N
1661696335.9,286046998.8,N
1661696355.8,286046999.4,N
1661696375.6,286046998.8,N
1661696395.4,286046998.7,N
1661696415.3,286046998.9,N
1661696435.1,286046998.9,N
1661696455.9,286046999.1,N
1661696475.7,286046999.1,N
1661696495.5,286046996.5,N
1661696515.4,286046998.2,N
1661696535.2,286046998.7,N
1661696555.0,286046998.3,N
1661696555.9,286046998.3,N
1661696575.8,286046998.7,N
1661696595.6,286046998.3,N
1661696615.5,286046998.7,N
1661696635.3,286046998.3,N
1661696655.1,286046999.3,N
1661696675.9,286046998.8,N
1661696695.7,286046998.9,N
1661696715.5,286046998.5,N
1661696735.4,286046998.4,N
1661696755.2,286046998.8,N
1661696775.1,286046999.4,N
1661696776.0,286046999.4,N
1661696795.8,286046996.5,Y
1661696815.6,286046998.6,P
1661696835.5,286046998.3,P
1661696855.3,286046999.0,P
1661696875.1,286046999.6,N
1661696895.9,286046999.6,N
1661696915.7,286046999.3,N
1661696935.6,286046996.7,Y
1661696955.4,286046998.9,P
1661696975.2,286046998.4,P
1661696995.1,286046998.4,P
1661697026.0,286047000.9,E
1661697035.0,286046998.4,N
1661697035.9,286046998.4,P
1661697055.8,286046998.5,P
1661697075.6,286046996.5,Y
1661697095.4,286046998.5,P
1661697115.3,286046998.6,P
1661697135.1,286046999.8,P
1661697155.8,286046999.8,N
1661697175.7,286047000.2,N
1661697195.5,286047000.9,N
1661697215.4,286046998.5,N
1661697235.2,286047001.2,N
1661697255.0,286047001.0,N
1661697255.9,286047001.0,N
1661697275.8,286047000.7,N
1661697295.6,286047000.0,N
1661697315.4,286047000.1,N
1661697335.3,286047001.1,N
1661697355.1,286046998.7,N
1661697375.9,286046998.1,N
1661697395.7,286047000.9,N
1661697415.5,286047002.4,N
1661697435.4,286047002.7,N
1661697455.2,286047000.2,N
1661697475.0,286047000.9,N
1661697475.9,286047000.9,N
1661697495.8,286046999.8,N
1661697515.6,286047000.5,N
1661697535.5,286047001.1,N
1661697555.3,286046998.6,N
1661697575.1,286046998.2,N
1661697595.9,286046998.1,N
1661697615.7,286046998.7,N
1661697635.5,286046998.2,N
1661697655.4,286046999.0,N
1661697675.2,286046998.8,N
1661697695.1,286046999.5,N
1661697696.0,286046999.5,N
1661697715.8,286046998.3,N
1661697735.6,286046998.2,N
1661697755.5,286046998.9,N
1661697775.3,286046999.1,N
1661697795.1,286046998.3,N
1661697815.9,286046998.3,N
1661697835.7,286046999.3,N
1661697855.6,286046999.5,N
1661697875.4,286046997.7,N
1661697895.2,286046999.5,N
1661697915.1,286046998.1,N
1661697916.0,286046998.1,N
1661697935.8,286047001.0,N
1661697955.6,286046998.1,N
1661697975.5,286046996.8,N
1661697995.3,286046993.8,Y
1661698015.2,286046990.4,P
1661698035.9,286046992.4,N
1661698055.7,286046994.2,N
1661698075.6,286046996.8,N
1661698095.4,286046999.9,N
1661698115.3,286047002.1,N
1661698135.1,286047003.3,N
1661698136.0,286047003.3,N
1661698155.8,286047005.8,N
1661698175.7,286047002.9,N
1661698195.5,286047002.9,N
1661698215.3,286047005.5,N
1661698235.2,286047003.0,N
1661698255.0,286047001.8,N
1661698255.9,286047001.8,N
1661698275.8,286047001.9,N
1661698295.6,286047002.1,N
1661698315.4,286047003.6,N
1661698335.3,286047003.7,N
1661698355.1,286047003.5,N
1661698375.8,286047002.0,N
1661698395.7,286047002.7,N
1661698415.5,286047002.7,N
1661698435.4,286047002.6,N
1661698455.2,286047001.6,N
1661698475.0,286047002.1,N
1661698475.9,286047002.1,N
1661698495.8,286047000.1,N
1661698515.6,286046998.5,N
1661698535.5,286046999.3,N
1661698555.3,286047000.5,N
1661698575.1,286046998.5,N
1661698595.9,286047001.1,N
1661698615.7,286046998.5,N
1661698635.5,286047001.1,N
1661698655.4,286047000.1,N
1661698675.2,286047000.1,N
1661698695.1,286047001.6,N
1661698696.0,286047001.6,N
1661698715.8,286047002.4,N
1661698735.6,286046999.8,N
1661698755.5,286046999.8,N
1661698775.3,286047002.8,N
1661698795.1,286047002.7,N
